Time,TemperatureF,DewpointF,PressureIn,WindDirection,WindDirectionDegrees,WindSpeedMPH,WindSpeedGustMPH,Humidity,HourlyPrecipIn,Conditions,Clouds,dailyrainin,SoftwareType,DateUTC
2013-08-19 00:12:00,61.0,56.0,30.10,SSE,158,0.0,0.0,85,0.00,,,0.00,,2013-08-19 04:12:00,
2013-08-19 00:23:00,61.0,56.0,30.10,SSE,158,0.0,0.0,85,0.00,,,0.00,,2013-08-19 04:23:00,
2013-08-19 00:53:00,61.0,57.0,30.09,SSE,158,0.0,0.0,86,0.00,,,0.00,,2013-08-19 04:53:00,
2013-08-19 01:22:00,61.0,57.0,30.08,SSE,158,0.0,0.0,86,0.00,,,0.00,,2013-08-19 05:22:00,
2013-08-19 01:52:00,60.0,56.0,30.08,SSE,158,0.0,0.0,87,0.00,,,0.00,,2013-08-19 05:52:00,
2013-08-19 02:21:00,60.0,56.0,30.08,SSE,158,0.0,0.0,87,0.00,,,0.00,,2013-08-19 06:21:00,
2013-08-19 02:52:00,59.0,55.0,30.07,SSE,158,0.0,0.0,87,0.00,,,0.00,,2013-08-19 06:52:00,
2013-08-19 03:21:00,59.0,55.0,30.07,SSE,158,0.0,0.0,88,0.00,,,0.00,,2013-08-19 07:21:00,
2013-08-19 03:52:00,59.0,55.0,30.07,SSE,158,0.0,0.0,88,0.00,,,0.00,,2013-08-19 07:52:00,
2013-08-19 04:21:00,59.0,55.0,30.06,SSE,158,0.0,0.0,88,0.00,,,0.00,,2013-08-19 08:21:00,
2013-08-19 04:52:00,59.0,55.0,30.07,SSE,158,0.0,0.0,88,0.00,,,0.00,,2013-08-19 08:52:00,
2013-08-19 05:22:00,59.0,55.0,30.06,West,270,0.0,0.0,88,0.00,,,0.00,,2013-08-19 09:22:00,
2013-08-19 05:53:00,59.0,55.0,30.06,West,270,0.0,0.0,88,0.00,,,0.00,,2013-08-19 09:53:00,
2013-08-19 06:23:00,59.0,55.0,30.06,West,270,0.0,0.0,88,0.00,,,0.00,,2013-08-19 10:23:00,
2013-08-19 06:52:00,59.0,55.0,30.07,West,270,0.0,0.0,88,0.00,,,0.00,,2013-08-19 10:52:00,
2013-08-19 07:22:00,59.0,55.0,30.06,West,270,0.0,0.0,88,0.00,,,0.00,,2013-08-19 11:22:00,
2013-08-19 07:52:00,61.0,57.0,30.06,West,270,0.0,0.0,88,0.00,,,0.00,,2013-08-19 11:52:00,
2013-08-19 08:21:00,62.0,58.0,30.06,WNW,293,0.0,0.0,87,0.00,,,0.00,,2013-08-19 12:21:00,
2013-08-19 08:52:00,64.0,60.0,30.06,WNW,293,0.0,0.0,86,0.00,,,0.00,,2013-08-19 12:52:00,
2013-08-19 09:22:00,66.0,61.0,30.06,WNW,293,0.0,0.0,84,0.00,,,0.00,,2013-08-19 13:22:00,
2013-08-19 09:52:00,69.0,63.0,30.05,WNW,293,0.0,0.0,82,0.00,,,0.00,,2013-08-19 13:52:00,
2013-08-19 10:21:00,70.0,64.0,30.04,WNW,293,0.0,0.0,82,0.00,,,0.00,,2013-08-19 14:21:00,
2013-08-19 10:52:00,73.0,66.0,30.03,SW,225,0.0,0.0,78,0.00,,,0.00,,2013-08-19 14:52:00,
2013-08-19 11:22:00,76.0,67.0,30.03,NW,315,3.0,3.0,73,0.00,,,0.00,,2013-08-19 15:22:00,
2013-08-19 11:54:00,78.0,67.0,30.03,ENE,68,0.0,4.0,69,0.00,,,0.00,,2013-08-19 15:54:00,
2013-08-19 12:23:00,80.0,66.0,30.03,SW,225,0.0,0.0,63,0.00,,,0.00,,2013-08-19 16:23:00,
2013-08-19 13:30:00,82.0,-99.9,30.02,ENE,68,0.0,0.0,58,0.00,,,0.00,,2013-08-19 17:30:00,
2013-08-19 13:57:00,83.0,67.0,30.01,NNE,23,0.0,0.0,58,0.00,,,0.00,,2013-08-19 17:57:00,
2013-08-19 14:28:00,81.0,66.0,30.01,West,270,0.0,0.0,60,0.00,,,0.00,,2013-08-19 18:28:00,
2013-08-19 14:50:00,-999.0,-99.9,30.01,West,270,0.0,0.0,64,0.00,,,0.00,,2013-08-19 18:50:00,
2013-08-19 15:00:00,-999.0,-99.9,30.01,West,270,0.0,0.0,64,0.00,,,0.00,,2013-08-19 19:00:00,
2013-08-19 15:30:00,-999.0,-99.9,30.00,West,270,0.0,0.0,60,0.00,,,0.00,,2013-08-19 19:30:00,
2013-08-19 15:59:00,79.0,65.0,30.00,NW,315,0.0,0.0,63,0.00,,,0.00,,2013-08-19 19:59:00,
2013-08-19 16:30:00,76.0,-99.9,29.99,NE,45,0.0,0.0,66,0.00,,,0.00,,2013-08-19 20:30:00,
2013-08-19 17:00:00,-999.0,-99.9,29.99,NNW,338,0.0,0.0,-999,-99.99,,,-99.99,,2013-08-19 21:00:00,
2013-08-19 17:25:00,74.0,64.0,29.98,WNW,293,0.0,0.0,71,0.00,,,0.00,,2013-08-19 21:25:00,
2013-08-19 17:55:00,73.0,63.0,29.99,WNW,293,0.0,0.0,72,0.00,,,0.00,,2013-08-19 21:55:00,
2013-08-19 18:25:00,73.0,64.0,29.99,WNW,293,0.0,0.0,73,0.00,,,0.00,,2013-08-19 22:25:00,
2013-08-19 18:55:00,71.0,63.0,30.00,WNW,293,0.0,0.0,75,0.00,,,0.00,,2013-08-19 22:55:00,
2013-08-19 19:25:00,70.0,62.0,30.00,West,270,0.0,0.0,77,0.00,,,0.00,,2013-08-19 23:25:00,
2013-08-19 19:55:00,70.0,62.0,30.00,WNW,293,0.0,0.0,77,0.00,,,0.00,,2013-08-19 23:55:00,
2013-08-19 20:24:00,69.0,62.0,30.00,WNW,293,0.0,0.0,78,0.00,,,0.00,,2013-08-20 00:24:00,
2013-08-19 20:42:00,69.0,62.0,30.00,WNW,293,0.0,0.0,79,0.00,,,0.00,,2013-08-20 00:42:00,
2013-08-19 20:53:00,68.0,61.0,30.01,WNW,293,0.0,0.0,79,0.00,,,0.00,,2013-08-20 00:53:00,
2013-08-19 21:22:00,68.0,62.0,30.01,WNW,293,0.0,0.0,80,0.00,,,0.00,,2013-08-20 01:22:00,
2013-08-19 21:42:00,68.0,62.0,30.01,WNW,293,0.0,0.0,81,0.00,,,0.00,,2013-08-20 01:42:00,
2013-08-19 21:52:00,68.0,62.0,30.01,WNW,293,0.0,0.0,81,0.00,,,0.00,,2013-08-20 01:52:00,
2013-08-19 22:21:00,68.0,62.0,30.01,West,270,0.0,0.0,81,0.00,,,0.00,,2013-08-20 02:21:00,
2013-08-19 22:52:00,68.0,62.0,30.01,West,270,0.0,0.0,81,0.00,,,0.00,,2013-08-20 02:52:00,
2013-08-19 23:22:00,67.0,61.0,30.02,West,270,0.0,0.0,82,0.00,,,0.00,,2013-08-20 03:22:00,
2013-08-19 23:54:00,67.0,61.0,30.02,WNW,293,0.0,0.0,82,0.00,,,0.00,,2013-08-20 03:54:00,